Simultaneous Nadir Overpasses (SNOs) Predictions

Prediction of SNOs between GOES-16 and METOP-C Satellite Orbit:

Table of predicted SNOs for the next 14.0 days since TLE Epoch: 3/28/2025
Index Date Time (GOES-16) GOES-16 Lat,Lon METOP-C Lat,Lon Distance(km) Time Diff (sec)
1 03/29/2025 14:27:59 0.06, -75.52 -0.28, -74.01 172.05 80
2 03/31/2025 02:46:59 -0.06, -75.50 -0.76, -78.60 353.23 80
3 04/01/2025 02:23:39 -0.06, -75.51 0.39, -73.61 216.46 80
4 04/02/2025 14:42:30 0.06, -75.54 0.65, -78.17 299.69 80
5 04/03/2025 14:24:30 0.05, -75.55 -0.50, -73.18 270.36 80
6 04/05/2025 02:43:28 -0.05, -75.54 -0.56, -77.76 254.08 80
7 04/06/2025 02:20:09 -0.05, -75.55 0.60, -72.78 316.30 80
8 04/07/2025 14:38:59 0.05, -75.59 0.43, -77.34 198.60 80
9 04/08/2025 14:20:59 0.04, -75.61 -0.68, -72.34 372.71 80
10 04/10/2025 02:39:57 -0.04, -75.62 -0.35, -76.93 149.45 80
11 04/11/2025 02:16:37 -0.04, -75.64 0.76, -71.93 422.24 80
